Terug naar catalogus

STARLINK-35677

ActiefCommunicatieVLEO
NORAD 66220·PAYLOAD·🇺🇸 United States

Gelanceerd Oct 28, 2025 vanaf Vandenberg Space Force Base

Loading…

Volgende Passages (komende 24 uur)

TLE

VersSource: CelesTrak SupGP

Epoch: Sep 14, 2026, 21:23 UTC

1 66220C 25244Q   26257.89145833  .00053415  00000+0  15786-2 0  2579
2 66220  53.1590  67.6551 0000884  87.5994 341.4919 15.34356159    17

Volg STARLINK-35677 in realtime met AllMySat

Download on the App Store